Wind_Speed
8 8 7 7 7 7 7 6 6 6 5 4 4 4 3 2 2 2 2 1 1 2 1 1 1 1 0 0 0 1 1 0 1 1 2 3 3 3 2 3 3 3 4
8 8 8 8 8 7 7 7 7 6 5 4 3 3 3 2 1 1 1 1 1 2 1 1 1 0 0 0 1 1 1 1 1 1 2 3 3 2 2 3 3 3 4
8 8 8 7 8 7 8 8 6 5 5 4 3 3 2 2 2 2 1 1 1 1 2 1 1 1 1 1 0 0 2 2 2 2 3 3 4 3 3 4 4 4 4
7 7 7 7 7 7 7 7 6 5 5 5 4 3 2 2 2 2 1 1 1 1 0 1 1 0 1 1 1 1 2 2 3 3 3 3 4 4 4 4 4 4 4
7 7 7 7 7 7 7 6 6 5 5 5 5 4 3 3 3 2 1 1 1 1 1 1 2 2 1 2 2 2 2 3 3 4 4 3 4 4 4 5 5 5 4
7 7 8 7 6 6 7 6 6 6 6 5 5 5 4 3 3 3 2 2 2 2 2 2 3 3 3 3 3 3 4 4 4 4 4 4 5 5 5 5 6 6 6
7 8 8 8 7 7 7 6 6 6 7 6 5 5 4 4 3 3 3 2 3 3 3 3 3 4 4 4 5 5 5 5 6 5 5 6 6 6 7 7 7 7 7
7 8 8 8 9 8 8 7 7 7 7 7 6 5 4 4 4 4 4 4 4 5 5 5 5 6 6 7 7 7 7 7 7 7 7 7 8 8 8 8 9 9 9
8 8 8 8 9 9 8 8 8 8 8 7 7 7 6 6 5 5 5 6 6 6 7 7 7 7 8 9 9 9 8 9 9 9 9 9 10 10 10 10 11 10 10
9 8 9 9 9 9 9 9 8 9 9 9 8 8 8 6 6 7 7 7 8 8 8 8 9 9 9 10 10 10 10 10 9 9 10 10 11 11 12 12 12 12 11
10 10 9 10 11 11 11 10 10 10 9 9 9 8 9 8 8 9 9 9 9 9 10 10 10 10 10 10 10 10 10 11 10 10 10 11 11 12 12 13 13 13 13
12 12 11 11 12 12 12 12 11 11 10 10 9 9 9 9 10 10 10 10 11 11 11 11 11 11 11 10 10 10 10 10 10 11 11 11 12 12 13 13 14 14 14
13 14 14 14 13 13 13 13 13 12 12 11 11 11 11 11 11 11 11 11 12 12 12 12 11 11 11 10 10 10 11 11 12 12 12 12 13 13 14 14 14 14 14
15 15 15 15 15 15 15 14 14 14 13 13 13 13 13 13 13 12 12 12 12 13 13 13 12 12 11 10 11 12 12 12 12 12 13 13 14 14 14 14 15 15 15
18 18 18 17 17 17 17 16 16 16 16 15 15 15 15 15 15 14 14 14 14 14 14 13 13 13 12 11 12 12 13 13 13 13 14 14 14 15 15 15 16 16 17
20 20 20 20 20 19 19 19 18 18 18 18 18 18 18 17 17 17 16 16 16 16 15 15 14 14 13 13 13 13 14 14 14 14 15 15 15 16 16 17 17 17 18
23 23 23 23 22 21 21 21 20 20 20 20 20 20 20 20 19 19 18 17 17 16 16 15 15 14 14 14 14 15 15 15 16 16 16 16 16 17 18 19 19 18 18
26 26 26 25 24 24 24 23 22 22 21 21 22 22 22 21 21 21 21 20 19 18 18 17 17 16 15 15 15 15 15 16 16 17 18 18 18 18 19 19 20 20 19
27 27 27 27 26 26 26 25 25 24 23 23 23 23 23 22 22 21 21 20 20 19 19 19 19 18 17 17 18 18 18 18 18 19 19 19 18 18 18 19 19 19 19
28 28 28 29 28 27 27 27 26 26 25 24 24 24 24 24 23 23 22 22 21 21 21 21 20 20 19 19 20 20 20 20 20 20 20 20 20 20 20 20 19 19 19
29 29 29 29 30 29 29 28 27 27 27 26 26 25 25 25 24 24 24 24 24 23 23 23 23 23 22 22 22 23 22 22 21 21 21 21 21 21 21 21 21 21 21
30 31 30 31 31 31 30 30 29 29 29 28 27 27 26 26 25 25 26 27 26 25 25 25 25 25 25 25 25 25 25 25 24 23 22 22 22 22 22 22 22 22 22
32 31 31 32 32 32 32 32 31 30 30 29 28 28 28 28 27 27 27 26 26 27 27 27 27 28 28 28 27 27 27 26 25 24 24 24 24 24 24 24 24 24 24
32 33 32 33 33 33 33 33 32 32 32 31 30 29 29 29 28 28 28 28 27 27 27 27 27 28 28 28 28 27 26 27 26 26 26 26 27 27 26 26 25 26 26
34 34 35 34 34 34 34 34 34 34 33 32 32 31 31 31 30 30 29 29 29 29 29 29 29 29 29 28 28 29 29 29 30 30 29 28 29 28 28 27 27 27 27
35 35 35 35 35 34 33 33 34 34 33 33 33 32 32 32 31 31 31 31 31 31 31 31 31 31 30 30 30 31 31 32 32 32 32 31 31 31 31 29 29 28 28
Wind_Direction
36 37 41 37 37 39 42 42 44 62 63 67 76 78 84 96 88 71 74 94 138 128 130 114 127 118 24 175 270 269 284 318 322 331 333 322 305 307 306 324 319 309 300
31 32 31 31 31 32 33 34 44 53 51 55 67 73 75 64 43 70 64 81 121 131 125 149 182 228 177 323 359 299 296 310 326 334 332 327 336 330 315 320 313 312 307
23 21 21 23 22 25 25 26 37 40 37 38 50 60 55 48 46 42 53 72 144 151 169 190 188 125 96 64 49 302 305 310 316 319 324 321 321 328 329 328 316 307 310
9 11 14 13 12 13 14 21 28 29 25 27 27 33 28 23 17 15 343 233 209 181 189 229 134 98 57 21 2 325 318 319 324 323 326 318 319 325 328 329 318 300 299
355 358 1 2 1 2 2 10 14 13 10 12 10 9 14 17 9 0 325 300 281 284 265 274 270 278 311 343 329 315 312 329 341 338 335 324 323 322 325 325 320 314 306
347 350 349 350 348 348 350 359 2 2 358 353 353 353 354 353 358 358 339 324 303 296 277 273 272 280 288 308 319 313 307 316 321 318 318 316 320 324 320 318 317 310 302
333 334 336 341 339 334 335 338 340 347 348 343 339 338 337 333 333 336 330 321 309 301 291 285 290 290 296 305 307 303 300 300 299 300 303 304 306 313 316 313 311 306 299
331 331 330 334 332 327 326 325 324 329 333 337 334 332 322 313 314 312 313 312 313 309 303 297 294 289 292 300 301 300 295 293 293 298 299 297 297 298 303 307 308 306 300
325 325 328 331 327 323 321 323 317 319 323 325 320 324 320 314 308 302 301 302 302 299 296 295 294 293 292 295 296 295 291 291 293 295 294 297 296 292 293 297 301 301 298
317 317 320 323 321 319 315 316 313 315 316 317 311 309 313 307 305 302 297 299 296 292 291 289 290 293 293 294 292 294 290 286 288 290 293 294 294 295 293 294 296 296 296
306 310 312 313 313 313 314 310 307 306 310 312 308 302 304 299 298 301 298 298 296 291 288 288 291 292 294 294 292 292 290 287 287 289 292 295 295 295 294 291 291 292 293
298 301 304 307 309 311 312 309 306 303 303 306 302 298 297 297 296 294 296 298 297 293 292 291 292 291 289 290 292 292 290 289 289 288 289 294 295 295 293 291 289 289 292
291 293 297 300 303 304 305 306 304 302 300 301 296 294 295 295 293 291 292 295 295 293 292 292 291 291 288 289 291 292 292 291 290 289 288 292 294 295 295 293 291 290 291
288 289 291 293 296 298 298 299 301 300 295 295 295 293 292 292 290 288 287 288 289 290 290 288 287 286 286 286 287 292 295 295 293 292 293 293 294 296 295 293 291 290 289
281 284 287 290 291 292 293 294 294 295 294 291 291 290 291 290 287 286 286 285 287 288 290 286 285 284 285 284 286 289 295 295 295 294 297 296 294 295 295 293 292 290 289
275 279 283 286 288 288 290 290 290 291 293 290 287 286 288 288 287 285 284 284 285 286 286 284 282 284 283 284 288 291 292 294 296 297 299 300 296 294 295 294 292 290 288
272 275 278 281 283 283 285 286 286 288 289 290 288 285 284 284 283 282 280 280 280 279 279 280 280 282 282 283 284 288 290 292 294 296 298 299 299 297 293 291 291 290 288
271 272 273 275 276 278 281 282 281 283 285 287 288 286 283 280 280 278 277 276 275 276 274 276 275 278 282 284 285 288 292 294 294 295 296 298 300 297 294 292 291 291 290
269 270 270 272 273 274 277 279 279 280 281 282 284 286 284 282 280 278 275 273 271 272 274 274 271 272 275 280 282 283 286 289 291 293 295 298 300 299 297 295 293 293 291
268 269 270 271 272 273 274 276 277 276 276 278 279 282 282 281 280 279 277 275 272 270 272 272 271 273 275 277 281 283 284 286 287 289 292 293 294 295 296 296 295 294 294
267 266 268 270 272 272 272 272 273 273 272 273 274 276 278 279 278 277 276 275 272 270 270 270 271 272 275 276 277 279 280 284 285 286 287 288 290 293 292 293 294 294 293
267 266 267 268 270 271 271 271 270 270 270 269 270 273 275 275 275 275 276 275 273 271 271 271 273 275 276 275 276 276 277 279 281 284 286 288 289 290 291 292 292 292 295
266 266 266 267 268 270 271 271 269 268 268 269 269 270 272 272 272 273 275 275 273 271 272 273 272 274 275 274 275 276 276 277 279 282 284 286 287 289 289 289 290 293 294
265 265 266 266 267 269 270 270 268 267 267 267 268 269 271 271 272 273 274 276 276 275 275 275 276 276 277 276 276 278 279 279 280 281 282 283 285 285 286 286 289 292 293
266 265 266 265 265 267 268 269 269 266 265 265 266 268 270 271 272 272 273 274 275 275 276 276 277 277 279 279 279 279 280 280 279 279 281 282 284 285 287 286 286 289 291
266 265 265 265 265 266 266 267 268 267 265 265 266 268 269 270 271 271 272 273 274 275 276 276 278 279 278 279 279 279 279 279 279 279 280 281 283 284 286 287 287 288 289
Height
5909 5908 5907 5905 5904 5902 5900 5899 5898 5897 5896 5895 5894 5893 5892 5892 5892 5891 5891 5890 5890 5890 5890 5890 5890 5889 5889 5889 5888 5888 5888 5888 5887 5887 5886 5886 5885 5884 5884 5883 5883 5882 5882
5910 5909 5908 5906 5905 5903 5901 5900 5898 5897 5896 5895 5895 5894 5893 5892 5892 5891 5891 5890 5890 5890 5890 5890 5890 5889 5889 5889 5888 5888 5888 5888 5887 5887 5886 5885 5885 5884 5883 5883 5882 5881 5881
5912 5910 5909 5907 5906 5904 5902 5901 5899 5898 5897 5896 5895 5894 5894 5893 5892 5891 5891 5891 5890 5890 5890 5890 5889 5889 5889 5888 5888 5888 5888 5887 5887 5886 5886 5885 5884 5883 5883 5882 5881 5881 5880
5913 5911 5909 5908 5907 5905 5903 5902 5900 5899 5898 5897 5896 5895 5894 5893 5893 5892 5891 5891 5890 5890 5890 5889 5889 5889 5889 5888 5888 5887 5887 5887 5886 5886 5885 5885 5884 5883 5882 5882 5881 5880 5879
5913 5912 5911 5909 5907 5906 5904 5903 5901 5900 5898 5897 5897 5895 5894 5893 5892 5891 5891 5890 5890 5890 5890 5889 5889 5889 5888 5888 5888 5887 5887 5886 5886 5885 5885 5884 5883 5883 5882 5881 5880 5879 5878
5914 5912 5911 5909 5908 5906 5905 5903 5902 5900 5899 5898 5897 5895 5894 5893 5892 5891 5891 5890 5890 5890 5889 5889 5889 5888 5888 5888 5887 5887 5886 5886 5885 5885 5884 5883 5882 5882 5881 5880 5879 5878 5877
5914 5912 5911 5909 5908 5906 5905 5903 5902 5901 5899 5898 5896 5895 5894 5893 5892 5891 5891 5890 5890 5889 5889 5888 5888 5887 5887 5886 5886 5886 5885 5885 5884 5884 5883 5882 5881 5880 5880 5879 5878 5877 5876
5913 5912 5911 5909 5908 5906 5905 5903 5902 5901 5899 5898 5896 5895 5894 5893 5892 5891 5890 5890 5889 5889 5888 5887 5887 5886 5886 5885 5885 5884 5884 5883 5883 5882 5881 5880 5880 5879 5878 5877 5876 5875 5874
5912 5911 5910 5909 5907 5905 5904 5903 5902 5900 5899 5897 5896 5895 5893 5892 5891 5891 5890 5889 5889 5888 5887 5886 5886 5885 5884 5884 5883 5882 5882 5881 5880 5880 5879 5878 5877 5877 5876 5875 5874 5873 5872
5912 5910 5909 5908 5906 5905 5903 5902 5901 5899 5898 5897 5895 5894 5892 5891 5890 5890 5889 5888 5887 5886 5886 5885 5884 5883 5883 5882 5881 5880 5879 5879 5878 5877 5876 5876 5875 5874 5873 5872 5871 5870 5869
5910 5909 5908 5906 5905 5903 5902 5900 5899 5898 5896 5895 5894 5893 5891 5890 5889 5888 5887 5886 5885 5885 5884 5883 5882 5881 5880 5879 5878 5877 5876 5876 5875 5874 5874 5873 5872 5871 5870 5869 5868 5867 5866
5908 5907 5906 5905 5903 5902 5900 5898 5897 5896 5894 5893 5892 5891 5890 5889 5888 5887 5886 5885 5884 5883 5882 5881 5880 5879 5878 5877 5876 5875 5874 5873 5872 5871 5871 5870 5869 5868 5867 5866 5865 5864 5862
5905 5904 5903 5902 5901 5900 5898 5897 5895 5894 5892 5891 5890 5889 5888 5887 5886 5884 5883 5882 5881 5880 5879 5878 5877 5876 5875 5874 5873 5872 5871 5870 5869 5869 5868 5867 5866 5865 5863 5862 5861 5860 5859
5902 5901 5900 5899 5898 5897 5896 5894 5893 5891 5890 5889 5888 5886 5885 5884 5883 5882 5881 5880 5878 5877 5876 5875 5874 5873 5872 5871 5870 5869 5868 5867 5866 5865 5864 5863 5862 5861 5860 5858 5857 5856 5855
5898 5897 5896 5896 5895 5893 5892 5891 5890 5888 5887 5886 5885 5883 5882 5881 5880 5879 5877 5876 5875 5874 5873 5872 5871 5869 5869 5868 5867 5866 5865 5864 5863 5862 5861 5859 5858 5857 5856 5854 5853 5852 5851
5893 5892 5892 5891 5890 5889 5888 5887 5886 5885 5883 5882 5881 5880 5878 5877 5876 5875 5874 5873 5872 5870 5869 5868 5867 5866 5865 5864 5863 5862 5861 5860 5859 5858 5857 5856 5854 5853 5852 5850 5848 5847 5846
5887 5887 5886 5886 5885 5884 5883 5882 5881 5880 5878 5877 5876 5875 5873 5872 5871 5870 5869 5868 5867 5866 5865 5864 5863 5862 5861 5861 5860 5859 5858 5857 5855 5854 5853 5851 5850 5848 5847 5845 5843 5842 5840
5881 5880 5880 5879 5879 5878 5877 5876 5875 5874 5873 5872 5871 5869 5868 5867 5866 5865 5864 5863 5862 5861 5861 5860 5859 5858 5857 5857 5856 5855 5854 5852 5851 5850 5848 5847 5845 5843 5841 5839 5838 5836 5835
5873 5873 5872 5872 5872 5871 5871 5870 5869 5868 5867 5866 5865 5864 5863 5862 5860 5860 5858 5857 5856 5856 5855 5854 5854 5853 5853 5852 5851 5850 5848 5847 5846 5845 5843 5842 5840 5838 5836 5834 5832 5830 5829
5865 5865 5864 5864 5864 5864 5863 5863 5862 5861 5860 5860 5859 5858 5857 5856 5855 5854 5853 5852 5851 5850 5850 5849 5848 5848 5848 5847 5846 5844 5843 5842 5841 5839 5838 5836 5835 5833 5830 5829 5827 5825 5823
5856 5856 5856 5856 5856 5855 5855 5855 5854 5854 5853 5853 5852 5851 5850 5849 5848 5848 5847 5846 5845 5844 5844 5843 5842 5842 5841 5841 5840 5838 5837 5836 5835 5833 5832 5831 5829 5827 5824 5823 5821 5819 5817
5847 5847 5847 5847 5847 5846 5846 5846 5846 5845 5845 5845 5844 5844 5843 5842 5842 5841 5840 5839 5838 5837 5837 5836 5835 5835 5834 5833 5832 5831 5831 5829 5828 5827 5826 5824 5823 5821 5818 5816 5815 5813 5811
5838 5838 5838 5838 5838 5837 5837 5837 5837 5837 5837 5837 5836 5836 5835 5834 5834 5833 5832 5831 5830 5829 5829 5828 5828 5827 5826 5825 5824 5823 5823 5822 5821 5820 5819 5817 5816 5814 5812 5810 5808 5806 5804
5828 5828 5828 5828 5828 5828 5828 5827 5827 5827 5828 5828 5828 5827 5827 5826 5826 5825 5824 5824 5823 5822 5821 5820 5820 5819 5818 5817 5816 5815 5814 5814 5813 5812 5811 5810 5808 5806 5804 5803 5801 5799 5797
5817 5817 5817 5817 5818 5818 5818 5817 5817 5817 5818 5818 5818 5818 5818 5818 5817 5817 5816 5816 5815 5814 5814 5813 5812 5811 5810 5809 5808 5807 5807 5805 5805 5803 5802 5801 5799 5797 5796 5794 5792 5790 5788
5806 5806 5806 5807 5807 5807 5807 5807 5807 5807 5808 5808 5809 5808 5808 5808 5808 5807 5807 5807 5806 5806 5805 5804 5803 5802 5801 5800 5799 5798 5797 5796 5795 5794 5793 5792 5790 5789 5787 5785 5783 5782 5780